#timestamp,LO_Frequency,Hit,StdDev 
1547060415.8,286047000.6,P
1547060435.7,286047001.0,N
1547060455.5,286047000.2,N
1547060475.4,286046999.8,N
1547060495.2,286046999.9,N
1547060515.0,286047000.4,N
1547060515.9,286047000.4,N
1547060535.8,286047000.7,N
1547060555.6,286046998.4,N
1547060575.4,286046998.8,N
1547060595.3,286047000.8,N
1547060615.1,286046999.9,N
1547060635.9,286047000.3,N
1547060655.7,286046998.2,N
1547060675.5,286047000.7,N
1547060695.4,286047002.8,Y
1547060715.2,286047000.4,P
1547060735.1,286047000.3,N
1547060736.0,286047000.3,N
1547060755.8,286046999.8,N
1547060775.6,286047001.7,Y
1547060795.5,286047001.9,P
1547060815.3,286046999.8,N
1547060835.2,286047000.1,N
1547060855.9,286047001.7,N
1547060875.7,286047001.4,N
1547060895.6,286047002.2,N
1547060915.4,286047001.5,N
1547060935.3,286047001.7,N
1547060955.1,286047004.3,Y
1547060956.0,286047004.3,P
1547060975.8,286047002.7,N
1547060995.7,286047002.4,N
1547061015.5,286047000.2,N
1547061035.3,286047000.2,N
1547061055.2,286047002.3,N
1547061075.0,286047002.6,N
1547061075.9,286047002.6,N
1547061095.8,286046999.7,N
1547061115.6,286047002.6,N
1547061135.4,286047001.8,N
1547061155.3,286047002.5,N
1547061175.1,286047002.8,N
1547061195.9,286046998.1,N
1547061215.7,286046998.5,N
1547061235.6,286046998.5,N
1547061255.4,286046999.4,N
1547061275.2,286046998.9,N
1547061295.1,286046998.7,N
1547061296.0,286046998.7,N
1547061315.8,286046998.6,N
1547061335.7,286046998.9,N
1547061355.5,286046998.3,N
1547061375.3,286047000.8,N
1547061395.2,286046998.4,N
1547061415.0,286046998.7,N
1547061415.9,286046998.7,N
1547061435.8,286046998.1,N
1547061455.6,286046998.1,N
1547061475.4,286047000.4,N
1547061495.3,286047002.2,N
1547061515.1,286047001.5,N
1547061535.9,286047004.3,N
1547061555.7,286047002.5,N
1547061575.5,286047001.9,N
1547061595.4,286047001.4,N
1547061615.2,286047001.3,N
1547061635.0,286046999.7,N
1547061635.9,286046999.7,N
1547061655.8,286047002.2,N
1547061675.6,286047002.4,N
1547061695.5,286047000.0,N
1547061715.3,286047001.0,N
1547061735.1,286047002.3,N
1547061755.9,286047002.7,N
1547061775.7,286046999.8,N
1547061795.5,286047001.3,N
1547061815.4,286047004.0,N
1547061835.2,286047002.1,N
1547061855.1,286047003.2,N
1547061856.0,286047003.2,N
1547061875.8,286047004.2,N
1547061895.6,286047003.2,N
1547061915.5,286047003.9,N
1547061935.3,286047001.4,N
1547061955.1,286047004.3,N
1547061975.9,286047003.8,N
1547061995.7,286047001.7,N
1547062015.6,286047003.4,N
1547062035.4,286047003.1,N
1547062055.2,286047004.4,Y
1547062075.1,286047000.9,P
1547062076.0,286047000.9,N
1547062095.8,286047001.1,N
1547062115.6,286046999.5,N
1547062135.5,286046999.2,N
1547062155.3,286046997.4,N
1547062175.2,286046997.4,N
1547062195.9,286046996.7,N
1547062215.7,286046996.6,N
1547062235.6,286046998.9,N
1547062255.4,286046998.3,N
1547062275.2,286046999.4,N
1547062295.1,286046999.3,N
1547062296.0,286046999.3,N
1547062315.8,286046998.9,N
1547062335.7,286046999.6,N
1547062355.5,286046999.2,N
1547062375.3,286046998.2,N
1547062395.2,286047001.1,N
1547062415.0,286047000.8,N
1547062415.9,286047000.8,N
1547062435.7,286047000.6,N
1547062455.6,286047000.6,N
1547062475.4,286047001.2,N
1547062495.3,286046998.2,N
1547062515.1,286047001.2,N
1547062535.8,286046999.2,N
1547062555.7,286046999.5,N
1547062575.5,286046998.6,N
1547062595.4,286047000.6,N
1547062615.2,286046998.3,N
1547062635.0,286047001.2,N
1547062635.9,286047001.2,N
1547062655.8,286047000.0,N
1547062675.6,286046999.8,N
1547062695.4,286047000.7,N
1547062715.3,286047000.1,N
1547062735.1,286047000.1,N
1547062755.9,286047002.7,N
1547062775.7,286047002.5,N
1547062795.5,286047002.3,N
1547062815.4,286046999.8,N
1547062835.2,286047000.6,N
1547062855.0,286047001.1,N
1547062855.9,286047001.1,N
1547062875.8,286046999.8,N
1547062895.6,286047001.1,N
1547062915.5,286047000.1,N
1547062935.3,286047000.1,N
1547062955.1,286047002.4,N
1547062975.9,286046999.8,N
1547062995.7,286047001.2,N
1547063015.5,286047000.0,N
1547063035.4,286047000.6,N
1547063055.2,286047000.2,N
1547063075.1,286047002.8,N
1547063076.0,286047002.8,N
1547063095.8,286047000.1,N
1547063115.6,286047002.8,N
1547063135.5,286047000.1,N
1547063155.3,286046998.4,N
1547063175.2,286047000.8,N
1547063195.9,286046998.2,N
1547063215.7,286046999.3,N
1547063235.6,286046996.8,N
1547063255.4,286046997.1,N
1547063275.2,286046996.9,N
1547063295.1,286046997.1,N
1547063296.0,286046997.1,N
1547063315.8,286046996.6,N
1547063335.7,286046998.9,N
1547063355.5,286046999.3,N
1547063375.3,286046999.4,N
1547063395.2,286046999.1,N
1547063415.0,286046998.8,N
1547063415.9,286046998.8,N
1547063435.8,286046998.4,N
1547063455.6,286046998.8,N
1547063475.4,286046999.2,N
1547063495.3,286046998.8,N
1547063515.1,286046999.5,N
1547063535.8,286046999.5,N
1547063555.7,286046996.6,N
1547063575.5,286046998.8,N
1547063595.4,286046998.8,N
1547063615.2,286046999.1,N
1547063635.0,286047001.2,N
1547063635.9,286047001.2,N
1547063655.8,286047000.6,N
1547063675.6,286046998.3,N
1547063695.5,286046999.5,N
1547063715.3,286047001.2,N
1547063735.1,286046998.2,N
1547063755.9,286047000.6,N
1547063775.7,286047000.1,N
1547063795.5,286047000.8,N
1547063815.4,286047000.8,N
1547063835.2,286047000.8,N
1547063855.1,286047000.0,N
1547063856.0,286047000.0,N
1547063875.8,286047001.2,N
1547063895.6,286047000.7,N
1547063915.5,286047000.8,N
1547063935.3,286046998.9,N
1547063955.1,286046998.9,N
1547063975.9,286046998.6,N
1547063995.7,286046999.7,N
